GW3475 Weather Reports


time (UTC)temp
C
wind
direction
speed
KPH
gust
KPH
rain 1hr
cm
rain 24hr
cm
rain mn
cm
humidity
%
barometer
mb
20260505022519 21 114 1.6 1.6 0.00 0.00 0.00 64 1008.7
20260505022016 21 147 1.6 3.2 0.00 0.00 0.00 64 1008.6
20260505021512 21 152 1.6 3.2 0.00 0.00 0.00 64 1008.4
20260505021009 21 122 1.6 3.2 0.00 0.00 0.00 64 1008.4
20260505020503 21 119 0.0 3.2 0.00 0.00 0.00 64 1008.4
20260505020000 21 114 0.0 0.0 0.00 0.00 0.00 64 1008.2
20260505015457 21 133 1.6 1.6 0.00 0.00 0.00 64 1008.3
20260505014954 21 125 1.6 1.6 0.00 0.00 0.00 64 1008.3
20260505014451 21 144 1.6 3.2 0.00 0.00 0.00 64 1008.3
20260505013948 21 155 3.2 3.2 0.00 0.00 0.00 63 1008.3
20260505013445 21 110 0.0 1.6 0.00 0.00 0.00 63 1008.2
20260505012943 21 127 0.0 1.6 0.00 0.00 0.00 63 1008.2
20260505012441 21 117 0.0 1.6 0.00 0.00 0.00 63 1008.2
20260505011937 21 113 1.6 3.2 0.00 0.00 0.00 62 1008.1
20260505011433 21 128 1.6 1.6 0.00 0.00 0.00 61 1008.3
20260505010930 21 132 1.6 3.2 0.00 0.00 0.00 62 1008.1
20260505010426 22 108 0.0 0.0 0.00 0.00 0.00 61 1008.0
20260505005922 22 134 1.6 3.2 0.00 0.00 0.00 60 1007.9
20260505005419 22 139 1.6 1.6 0.00 0.00 0.00 60 1008.0
20260505004917 22 118 0.0 0.0 0.00 0.00 0.00 59 1007.9
20260505004413 22 128 0.0 0.0 0.00 0.00 0.00 59 1007.8
20260505003910 22 138 0.0 0.0 0.00 0.00 0.00 59 1007.8
20260505003407 22 111 1.6 1.6 0.00 0.00 0.00 59 1008.0
20260505002904 22 136 1.6 1.6 0.00 0.00 0.00 59 1008.2
20260505002400 22 107 0.0 1.6 0.00 0.00 0.00 58 1008.0
20260505001859 23 114 1.6 1.6 0.00 0.00 0.00 58 1008.1
20260505001355 23 113 0.0 0.0 0.00 0.00 0.00 58 1008.1
20260505000853 23 123 3.2 3.2 0.00 0.00 0.00 57 1008.2
20260505000351 23 153 3.2 3.2 0.00 0.00 0.00 57 1008.0
20260504235847 23 172 1.6 3.2 0.00 0.00 0.00 56 1008.1
20260504235344 23 138 4.8 8.0 0.00 0.00 0.00 56 1008.1
20260504234840 23 127 1.6 1.6 0.00 0.00 0.00 57 1008.2
20260504234338 23 137 3.2 3.2 0.00 0.00 0.00 56 1008.3
20260504233834 23 124 1.6 1.6 0.00 0.00 0.00 57 1008.2
20260504233330 23 127 4.8 8.0 0.00 0.00 0.00 56 1008.3
20260504232827 23 114 1.6 1.6 0.00 0.00 0.00 56 1008.3
20260504232324 23 173 4.8 8.0 0.00 0.00 0.00 55 1008.4
20260504231821 23 125 4.8 4.8 0.00 0.00 0.00 55 1008.5
20260504231318 23 189 3.2 3.2 0.00 0.00 0.00 54 1008.5
20260504230814 24 223 4.8 8.0 0.00 0.00 0.00 54 1008.5
20260504230312 24 225 4.8 8.0 0.00 0.00 0.00 54 1008.7
20260504225810 24 155 4.8 8.0 0.00 0.00 0.00 54 1008.7
20260504225306 24 156 1.6 4.8 0.00 0.00 0.00 54 1009.0
20260504224803 24 147 6.4 11.3 0.00 0.00 0.00 54 1008.9
20260504224301 24 250 4.8 8.0 0.00 0.00 0.00 54 1008.8
20260504223757 24 218 4.8 8.0 0.00 0.00 0.00 54 1008.7
20260504223253 24 224 4.8 4.8 0.00 0.00 0.00 53 1009.0
20260504222750 24 213 8.0 11.3 0.00 0.00 0.00 53 1008.8
20260504222246 24 135 4.8 8.0 0.00 0.00 0.00 53 1009.0
20260504221744 25 266 6.4 11.3 0.00 0.00 0.00 52 1008.9
20260504221241 25 168 3.2 4.8 0.00 0.00 0.00 52 1009.0
20260504220738 25 147 3.2 3.2 0.00 0.00 0.00 53 1008.9
20260504220235 25 141 0.0 0.0 0.00 0.00 0.00 53 1009.2
20260504215732 24 311 4.8 4.8 0.00 0.00 0.00 52 1009.0
20260504215229 25 229 4.8 8.0 0.00 0.00 0.00 52 1009.3
20260504214725 25 159 3.2 3.2 0.00 0.00 0.00 51 1009.3
20260504214221 25 193 1.6 3.2 0.00 0.00 0.00 52 1009.3
20260504213718 25 138 3.2 4.8 0.00 0.00 0.00 52 1009.5
20260504213214 25 179 3.2 4.8 0.00 0.00 0.00 52 1009.4
20260504212711 25 274 4.8 8.0 0.00 0.00 0.00 52 1009.4
20260504212208 25 241 4.8 11.3 0.00 0.00 0.00 52 1009.6
20260504211705 25 236 4.8 8.0 0.00 0.00 0.00 52 1009.4
20260504211202 25 320 8.0 20.9 0.00 0.00 0.00 51 1009.7
20260504210659 25 163 3.2 3.2 0.00 0.00 0.00 52 1009.5
20260504210155 25 159 6.4 8.0 0.00 0.00 0.00 51 1009.8
20260504205653 25 145 3.2 4.8 0.00 0.00 0.00 52 1009.7
20260504205150 25 254 12.9 14.5 0.00 0.00 0.00 51 1009.6
20260504204648 25 160 3.2 4.8 0.00 0.00 0.00 51 1009.9
20260504204147 25 250 6.4 9.7 0.00 0.00 0.00 51 1010.0
20260504203645 25 261 8.0 12.9 0.00 0.00 0.00 51 1009.9
20260504203143 25 122 0.0 1.6 0.00 0.00 0.00 51 1009.9
20260504202637 25 179 4.8 8.0 0.00 0.00 0.00 51 1010.2
20260504202135 25 133 1.6 3.2 0.00 0.00 0.00 52 1010.2
20260504201631 25 102 3.2 4.8 0.00 0.00 0.00 52 1010.5
20260504201129 25 227 9.7 14.5 0.00 0.00 0.00 50 1010.6
20260504200626 25 278 12.9 16.1 0.00 0.00 0.00 50 1010.7
20260504200123 25 188 8.0 12.9 0.00 0.00 0.00 49 1010.7
20260504195618 25 154 4.8 8.0 0.00 0.00 0.00 50 1010.7
20260504195115 25 194 6.4 8.0 0.00 0.00 0.00 50 1010.9
20260504194612 25 126 8.0 12.9 0.00 0.00 0.00 50 1010.8
20260504194107 24 170 3.2 4.8 0.00 0.00 0.00 53 1010.9
20260504193604 25 169 8.0 11.3 0.00 0.00 0.00 50 1011.0
20260504193103 25 177 4.8 8.0 0.00 0.00 0.00 50 1011.1
20260504192601 25 154 6.4 12.9 0.00 0.00 0.00 51 1011.1
20260504192058 25 255 8.0 9.7 0.00 0.00 0.00 49 1011.3
20260504191555 25 25 3.2 3.2 0.00 0.00 0.00 51 1011.4
20260504191046 25 140 4.8 8.0 0.00 0.00 0.00 51 1011.6
20260504190543 24 282 4.8 4.8 0.00 0.00 0.00 51 1011.7
20260504190038 25 284 8.0 11.3 0.00 0.00 0.00 50 1011.6
20260504185536 24 141 4.8 9.7 0.00 0.00 0.00 50 1011.9
20260504185032 25 240 4.8 4.8 0.00 0.00 0.00 49 1012.0
20260504184527 24 236 8.0 9.7 0.00 0.00 0.00 50 1012.0
20260504184018 24 267 12.9 17.7 0.00 0.00 0.00 50 1011.8
20260504183515 24 165 3.2 8.0 0.00 0.00 0.00 51 1011.8
20260504183013 23 266 9.7 14.5 0.00 0.00 0.00 51 1012.0
20260504182509 24 244 14.5 16.1 0.00 0.00 0.00 49 1012.3
20260504182007 24 156 3.2 4.8 0.00 0.00 0.00 51 1011.9
20260504181504 25 218 8.0 12.9 0.00 0.00 0.00 48 1012.1
20260504181003 25 106 0.0 0.0 0.00 0.00 0.00 50 1012.1
20260504180501 25 153 1.6 3.2 0.00 0.00 0.00 53 1012.4
20260504175959 24 153 3.2 8.0 0.00 0.00 0.00 51 1012.4
20260504175456 24 223 12.9 20.9 0.00 0.00 0.00 50 1012.5
20260504174953 24 195 6.4 11.3 0.00 0.00 0.00 50 1012.7
20260504174451 24 261 4.8 8.0 0.00 0.00 0.00 52 1012.5
20260504173948 23 226 6.4 8.0 0.00 0.00 0.00 51 1012.5
20260504173443 24 237 9.7 16.1 0.00 0.00 0.00 51 1012.9
20260504172942 24 119 4.8 9.7 0.00 0.00 0.00 51 1012.7
20260504172437 23 286 8.0 11.3 0.00 0.00 0.00 50 1012.8
20260504171934 23 166 1.6 4.8 0.00 0.00 0.00 54 1013.0
20260504171432 23 253 12.9 14.5 0.00 0.00 0.00 50 1013.1
20260504170928 23 252 9.7 16.1 0.00 0.00 0.00 50 1013.2
20260504170425 23 170 4.8 12.9 0.00 0.00 0.00 51 1013.0
20260504160343 23 144 1.6 3.2 0.00 0.00 0.00 55 1013.8
20260504150808 22 253 6.4 8.0 0.00 0.00 0.00 61 1013.9
20260504150305 21 271 6.4 11.3 0.00 0.00 0.00 62 1013.8
20260504141229 19 240 8.0 11.3 0.00 0.00 0.00 67 1014.1
20260504140725 18 231 11.3 12.9 0.00 0.00 0.00 67 1014.2
20260504140221 18 241 9.7 12.9 0.00 0.00 0.00 68 1014.1
20260504130650 15 118 1.6 3.2 0.00 0.00 0.00 81 1014.2
20260504130146 15 122 1.6 1.6 0.00 0.00 0.00 82 1014.1
20260504120110 13 105 0.0 0.0 0.00 0.00 0.00 87 1013.3
20260504110538 13 99 0.0 0.0 0.00 0.00 0.00 86 1013.3
20260504100459 13 91 0.0 0.0 0.00 0.00 0.00 85 1013.6
20260504081852 15 90 0.0 0.0 0.00 0.00 0.00 82 1013.7
20260504081349 15 96 0.0 0.0 0.00 0.00 0.00 81 1013.9
20260504080845 15 98 0.0 0.0 0.00 0.00 0.00 80 1013.8
20260504080342 15 98 0.0 0.0 0.00 0.00 0.00 80 1013.7
20260504070304 17 201 1.6 3.2 0.00 0.00 0.00 74 1014.2
20260504060224 17 140 1.6 1.6 0.00 0.00 0.00 71 1014.9
20260504050652 18 254 6.4 9.7 0.00 0.00 0.00 68 1014.9
20260504050149 18 108 0.0 1.6 0.00 0.00 0.00 67 1014.8
20260504045646 18 105 0.0 0.0 0.00 0.00 0.00 68 1014.7
20260504045146 18 134 1.6 1.6 0.00 0.00 0.00 68 1014.5
20260504044644 18 241 4.8 4.8 0.00 0.00 0.00 68 1014.7
20260504044141 18 114 0.0 0.0 0.00 0.00 0.00 68 1014.7
20260504043638 18 109 0.0 0.0 0.00 0.00 0.00 68 1014.6
20260504043135 18 114 0.0 0.0 0.00 0.00 0.00 68 1014.5
20260504042633 18 108 0.0 0.0 0.00 0.00 0.00 68 1014.7
20260504042129 18 115 0.0 0.0 0.00 0.00 0.00 68 1014.7
20260504041625 19 119 1.6 3.2 0.00 0.00 0.00 67 1014.7
20260504041121 19 225 3.2 3.2 0.00 0.00 0.00 67 1014.9
20260504040619 19 123 0.0 1.6 0.00 0.00 0.00 67 1015.0
20260504040115 19 151 1.6 1.6 0.00 0.00 0.00 66 1015.0
20260504035612 19 170 3.2 3.2 0.00 0.00 0.00 66 1015.1
20260504035108 19 122 1.6 1.6 0.00 0.00 0.00 66 1015.1
20260504034607 19 117 0.0 0.0 0.00 0.00 0.00 66 1015.0
20260504034103 19 112 0.0 0.0 0.00 0.00 0.00 66 1015.0
20260504033601 20 108 0.0 0.0 0.00 0.00 0.00 66 1015.2
20260504033058 20 130 1.6 1.6 0.00 0.00 0.00 65 1015.3
20260504032555 20 141 0.0 1.6 0.00 0.00 0.00 65 1015.1
20260504032052 20 166 1.6 3.2 0.00 0.00 0.00 64 1015.2
20260504031549 20 115 0.0 1.6 0.00 0.00 0.00 65 1015.2
20260504031045 20 130 1.6 1.6 0.00 0.00 0.00 64 1015.0
20260504030542 20 163 1.6 1.6 0.00 0.00 0.00 63 1014.9
20260504030038 20 117 0.0 0.0 0.00 0.00 0.00 64 1015.3
20260504025536 20 259 3.2 4.8 0.00 0.00 0.00 63 1014.9
20260504025032 20 156 1.6 3.2 0.00 0.00 0.00 62 1015.2
20260504024529 20 113 0.0 0.0 0.00 0.00 0.00 62 1015.1
20260504024026 20 104 0.0 1.6 0.00 0.00 0.00 62 1015.0
20260504023523 20 123 1.6 1.6 0.00 0.00 0.00 62 1015.1
20260504023019 20 112 0.0 0.0 0.00 0.00 0.00 61 1014.9